Time,TemperatureF,DewpointF,PressureIn,WindDirection,WindDirectionDegrees,WindSpeedMPH,WindSpeedGustMPH,Humidity,HourlyPrecipIn,Conditions,Clouds,dailyrainin,SoftwareType,DateUTC
2014-01-30 00:04:00,56.8,54.5,29.94,South,186,3.0,3.0,92,0.00,,,0.00,Wunderground v.1.15,2014-01-30 08:04:00,
2014-01-30 00:13:00,56.9,54.3,29.94,South,186,2.0,2.0,91,0.00,,,0.00,Wunderground v.1.15,2014-01-30 08:13:00,
2014-01-30 00:24:00,57.1,54.5,29.94,South,186,1.0,1.0,91,0.00,,,0.00,Wunderground v.1.15,2014-01-30 08:24:00,
2014-01-30 00:34:00,57.1,54.5,29.94,South,185,1.0,1.0,91,0.00,,,0.00,Wunderground v.1.15,2014-01-30 08:34:00,
2014-01-30 00:43:00,57.1,54.5,29.94,South,185,1.0,1.0,91,0.00,,,0.00,Wunderground v.1.15,2014-01-30 08:43:00,
2014-01-30 00:49:00,57.2,54.6,29.94,South,185,0.0,1.0,91,0.00,,,0.00,Wunderground v.1.15,2014-01-30 08:49:00,
2014-01-30 00:59:00,57.3,54.7,29.94,South,185,0.0,0.0,91,0.00,,,0.00,Wunderground v.1.15,2014-01-30 08:59:00,
2014-01-30 01:09:00,57.3,54.4,29.94,South,185,0.0,7.0,90,0.00,,,0.00,Wunderground v.1.15,2014-01-30 09:09:00,
2014-01-30 01:18:00,57.3,54.4,29.94,South,185,0.0,7.0,90,0.00,,,0.00,Wunderground v.1.15,2014-01-30 09:18:00,
2014-01-30 01:24:00,57.3,54.4,29.94,South,186,1.0,1.0,90,0.00,,,0.00,Wunderground v.1.15,2014-01-30 09:24:00,
2014-01-30 01:33:00,57.4,54.5,29.94,South,185,0.0,2.0,90,0.00,,,0.00,Wunderground v.1.15,2014-01-30 09:33:00,
2014-01-30 01:44:00,57.4,54.2,29.94,South,185,1.0,1.0,89,0.00,,,0.00,Wunderground v.1.15,2014-01-30 09:44:00,
2014-01-30 01:53:00,57.5,54.3,29.93,South,186,0.0,0.0,89,0.00,,,0.00,Wunderground v.1.15,2014-01-30 09:53:00,
2014-01-30 02:04:00,57.5,54.3,29.93,South,185,1.0,5.0,89,0.00,,,0.00,Wunderground v.1.15,2014-01-30 10:04:00,
2014-01-30 02:14:00,57.3,53.8,29.93,South,186,3.0,5.0,88,0.00,,,0.00,Wunderground v.1.15,2014-01-30 10:14:00,
2014-01-30 02:24:00,57.2,53.7,29.93,South,186,2.0,2.0,88,0.00,,,0.00,Wunderground v.1.15,2014-01-30 10:24:00,
2014-01-30 02:34:00,57.1,53.6,29.93,South,186,2.0,2.0,88,0.00,,,0.00,Wunderground v.1.15,2014-01-30 10:34:00,
2014-01-30 02:43:00,57.1,53.6,29.93,South,186,1.0,1.0,88,0.00,,,0.00,Wunderground v.1.15,2014-01-30 10:43:00,
2014-01-30 02:49:00,57.1,53.6,29.93,South,186,0.0,1.0,88,0.00,,,0.00,Wunderground v.1.15,2014-01-30 10:49:00,
2014-01-30 02:59:00,57.2,53.7,29.92,South,186,0.0,2.0,88,0.00,,,0.00,Wunderground v.1.15,2014-01-30 10:59:00,
2014-01-30 03:09:00,57.2,53.4,29.92,South,186,0.0,4.0,87,0.00,,,0.00,Wunderground v.1.15,2014-01-30 11:09:00,
2014-01-30 03:18:00,57.1,53.6,29.92,South,186,0.0,4.0,88,0.00,,,0.00,Wunderground v.1.15,2014-01-30 11:18:00,
2014-01-30 03:24:00,56.9,53.4,29.92,South,186,2.0,2.0,88,0.00,,,0.00,Wunderground v.1.15,2014-01-30 11:24:00,
2014-01-30 03:34:00,56.6,53.1,29.92,South,186,2.0,2.0,88,0.00,,,0.00,Wunderground v.1.15,2014-01-30 11:34:00,
2014-01-30 03:43:00,56.6,53.1,29.92,South,185,2.0,2.0,88,0.00,,,0.00,Wunderground v.1.15,2014-01-30 11:43:00,
2014-01-30 03:49:00,56.5,53.0,29.92,South,186,2.0,2.0,88,0.00,,,0.00,Wunderground v.1.15,2014-01-30 11:49:00,
2014-01-30 03:59:00,56.4,52.6,29.91,South,185,1.0,2.0,87,0.00,,,0.00,Wunderground v.1.15,2014-01-30 11:59:00,
2014-01-30 04:04:00,56.4,52.6,29.91,South,185,1.0,6.0,87,0.00,,,0.00,Wunderground v.1.15,2014-01-30 12:04:00,
2014-01-30 04:13:00,56.5,52.7,29.91,South,185,1.0,6.0,87,0.00,,,0.00,Wunderground v.1.15,2014-01-30 12:13:00,
2014-01-30 04:19:00,56.5,52.7,29.91,South,185,0.0,6.0,87,0.00,,,0.00,Wunderground v.1.15,2014-01-30 12:19:00,
2014-01-30 04:29:00,56.3,52.8,29.91,South,185,2.0,2.0,88,0.00,,,0.00,Wunderground v.1.15,2014-01-30 12:29:00,
2014-01-30 04:39:00,56.2,52.7,29.92,South,185,1.0,2.0,88,0.00,,,0.00,Wunderground v.1.15,2014-01-30 12:39:00,
2014-01-30 04:48:00,56.2,52.7,29.92,South,185,1.0,2.0,88,0.00,,,0.00,Wunderground v.1.15,2014-01-30 12:48:00,
2014-01-30 04:53:00,56.2,52.4,29.92,South,185,1.0,2.0,87,0.00,,,0.00,Wunderground v.1.15,2014-01-30 12:53:00,
2014-01-30 05:04:00,56.1,52.3,29.91,South,185,2.0,6.0,87,0.00,,,0.00,Wunderground v.1.15,2014-01-30 13:04:00,
2014-01-30 05:13:00,56.0,52.2,29.92,SSE,160,3.0,6.0,87,0.00,,,0.00,Wunderground v.1.15,2014-01-30 13:13:00,
2014-01-30 05:19:00,55.9,52.1,29.92,SSE,166,3.0,6.0,87,0.00,,,0.00,Wunderground v.1.15,2014-01-30 13:19:00,
2014-01-30 05:24:00,55.9,51.8,29.92,SSE,150,3.0,3.0,86,0.00,,,0.00,Wunderground v.1.15,2014-01-30 13:24:00,
2014-01-30 05:34:00,55.8,51.7,29.92,SSE,157,2.0,5.0,86,0.00,,,0.00,Wunderground v.1.15,2014-01-30 13:34:00,
2014-01-30 05:43:00,55.6,51.5,29.92,South,171,1.0,1.0,86,0.00,,,0.00,Wunderground v.1.15,2014-01-30 13:43:00,
2014-01-30 05:49:00,55.5,51.4,29.92,South,171,0.0,1.0,86,0.00,,,0.00,Wunderground v.1.15,2014-01-30 13:49:00,
2014-01-30 05:59:00,55.5,51.4,29.92,South,171,0.0,1.0,86,0.00,,,0.00,Wunderground v.1.15,2014-01-30 13:59:00,
2014-01-30 06:09:00,55.4,51.3,29.92,South,171,0.0,0.0,86,0.00,,,0.00,Wunderground v.1.15,2014-01-30 14:09:00,
2014-01-30 06:18:00,55.4,51.3,29.92,East,101,1.0,4.0,86,0.00,,,0.00,Wunderground v.1.15,2014-01-30 14:18:00,
2014-01-30 06:23:00,55.4,51.3,29.92,East,101,1.0,1.0,86,0.00,,,0.00,Wunderground v.1.15,2014-01-30 14:23:00,
2014-01-30 06:34:00,55.4,51.3,29.92,East,101,1.0,1.0,86,0.00,,,0.00,Wunderground v.1.15,2014-01-30 14:34:00,
2014-01-30 06:43:00,55.3,51.2,29.92,East,101,1.0,1.0,86,0.00,,,0.00,Wunderground v.1.15,2014-01-30 14:43:00,
2014-01-30 06:49:00,55.3,51.2,29.92,East,101,1.0,2.0,86,0.00,,,0.00,Wunderground v.1.15,2014-01-30 14:49:00,
2014-01-30 06:54:00,55.2,51.4,29.92,ENE,60,1.0,1.0,87,0.00,,,0.00,Wunderground v.1.15,2014-01-30 14:54:00,
2014-01-30 07:04:00,55.3,51.5,29.92,ENE,60,1.0,6.0,87,0.00,,,0.00,Wunderground v.1.15,2014-01-30 15:04:00,
2014-01-30 07:13:00,55.3,51.5,29.91,ENE,66,1.0,1.0,87,0.00,,,0.00,Wunderground v.1.15,2014-01-30 15:13:00,
2014-01-30 07:24:00,55.4,51.6,29.91,ENE,59,1.0,2.0,87,0.00,,,0.00,Wunderground v.1.15,2014-01-30 15:24:00,
2014-01-30 07:34:00,55.6,51.8,29.91,NE,55,1.0,1.0,87,0.00,,,0.00,Wunderground v.1.15,2014-01-30 15:34:00,
2014-01-30 07:44:00,55.9,51.8,29.92,ENE,72,1.0,3.0,86,0.00,,,0.00,Wunderground v.1.15,2014-01-30 15:44:00,
2014-01-30 07:53:00,56.2,52.1,29.92,ENE,61,3.0,3.0,86,0.00,,,0.00,Wunderground v.1.15,2014-01-30 15:53:00,
2014-01-30 07:59:00,56.4,51.9,29.92,ENE,68,2.0,4.0,85,0.00,,,0.00,Wunderground v.1.15,2014-01-30 15:59:00,
2014-01-30 08:09:00,56.8,52.0,29.93,ENE,57,3.0,4.0,84,0.00,,,0.00,Wunderground v.1.15,2014-01-30 16:09:00,
2014-01-30 08:19:00,57.1,52.3,29.92,ENE,63,2.0,4.0,84,0.00,,,0.00,Wunderground v.1.15,2014-01-30 16:19:00,
2014-01-30 08:24:00,57.3,52.5,29.93,ENE,60,2.0,2.0,84,0.00,,,0.00,Wunderground v.1.15,2014-01-30 16:24:00,
2014-01-30 08:34:00,57.8,52.7,29.93,ENE,60,1.0,1.0,83,0.00,,,0.00,Wunderground v.1.15,2014-01-30 16:34:00,
2014-01-30 08:43:00,58.3,52.5,29.94,ESE,112,1.0,1.0,81,0.00,,,0.00,Wunderground v.1.15,2014-01-30 16:43:00,
2014-01-30 08:49:00,58.5,52.7,29.93,ESE,112,1.0,1.0,81,0.00,,,0.00,Wunderground v.1.15,2014-01-30 16:49:00,
2014-01-30 08:59:00,58.7,52.5,29.94,ENE,61,2.0,2.0,80,0.00,,,0.00,Wunderground v.1.15,2014-01-30 16:59:00,
2014-01-30 09:09:00,58.7,52.5,29.94,ESE,112,1.0,6.0,80,0.00,,,0.00,Wunderground v.1.15,2014-01-30 17:09:00,
2014-01-30 09:18:00,58.9,52.7,29.95,ESE,115,0.0,3.0,80,0.00,,,0.00,Wunderground v.1.15,2014-01-30 17:18:00,
2014-01-30 09:24:00,59.0,53.2,29.95,ESE,111,1.0,2.0,81,0.00,,,0.00,Wunderground v.1.15,2014-01-30 17:24:00,
2014-01-30 09:34:00,59.1,52.9,29.95,ESE,111,1.0,1.0,80,0.00,,,0.00,Wunderground v.1.15,2014-01-30 17:34:00,
2014-01-30 09:43:00,59.2,53.0,29.95,South,186,1.0,1.0,80,0.00,,,0.00,Wunderground v.1.15,2014-01-30 17:43:00,
2014-01-30 09:49:00,59.4,53.2,29.96,SSW,213,2.0,3.0,80,0.00,,,0.00,Wunderground v.1.15,2014-01-30 17:49:00,
2014-01-30 09:59:00,59.5,53.0,29.96,SSW,213,1.0,1.0,79,0.00,,,0.00,Wunderground v.1.15,2014-01-30 17:59:00,
2014-01-30 10:09:00,59.9,53.4,29.95,SE,126,0.0,6.0,79,0.00,,,0.00,Wunderground v.1.15,2014-01-30 18:09:00,
2014-01-30 10:18:00,60.5,53.6,29.95,SE,126,1.0,2.0,78,0.00,,,0.00,Wunderground v.1.15,2014-01-30 18:18:00,
2014-01-30 10:24:00,60.8,53.9,29.95,ESE,111,1.0,1.0,78,0.00,,,0.00,Wunderground v.1.15,2014-01-30 18:24:00,
2014-01-30 10:34:00,60.7,53.4,29.95,ENE,68,2.0,2.0,77,0.00,,,0.00,Wunderground v.1.15,2014-01-30 18:34:00,
2014-01-30 10:43:00,60.8,53.5,29.95,SE,138,2.0,2.0,77,0.00,,,0.00,Wunderground v.1.15,2014-01-30 18:43:00,
2014-01-30 10:49:00,61.1,53.8,29.95,SSE,148,1.0,2.0,77,0.00,,,0.00,Wunderground v.1.15,2014-01-30 18:49:00,
2014-01-30 10:59:00,61.4,53.8,29.95,SE,134,1.0,1.0,76,0.00,,,0.00,Wunderground v.1.15,2014-01-30 18:59:00,
2014-01-30 11:09:00,61.6,53.6,29.94,South,177,1.0,4.0,75,0.00,,,0.00,Wunderground v.1.15,2014-01-30 19:09:00,
2014-01-30 11:18:00,61.7,53.7,29.93,ESE,121,1.0,3.0,75,0.00,,,0.00,Wunderground v.1.15,2014-01-30 19:18:00,
2014-01-30 11:24:00,61.7,53.7,29.92,ESE,114,2.0,2.0,75,0.00,,,0.00,Wunderground v.1.15,2014-01-30 19:24:00,
2014-01-30 11:33:00,61.9,53.5,29.92,SSE,165,3.0,4.0,74,0.00,,,0.00,Wunderground v.1.15,2014-01-30 19:33:00,
2014-01-30 11:44:00,61.6,53.2,29.92,SW,220,4.0,4.0,74,0.00,,,0.00,Wunderground v.1.15,2014-01-30 19:44:00,
2014-01-30 11:54:00,61.3,53.3,29.93,SSW,200,3.0,3.0,75,0.00,,,0.00,Wunderground v.1.15,2014-01-30 19:54:00,
2014-01-30 12:04:00,60.9,53.3,29.93,SSW,201,1.0,1.0,76,0.00,,,0.00,Wunderground v.1.15,2014-01-30 20:04:00,
2014-01-30 12:13:00,60.8,53.2,29.91,SSW,200,1.0,2.0,76,0.00,,,0.00,Wunderground v.1.15,2014-01-30 20:13:00,
2014-01-30 12:19:00,60.8,53.2,29.90,ESE,117,2.0,2.0,76,0.00,,,0.00,Wunderground v.1.15,2014-01-30 20:19:00,
2014-01-30 12:29:00,60.9,53.3,29.90,SSE,148,1.0,3.0,76,0.00,,,0.00,Wunderground v.1.15,2014-01-30 20:29:00,
2014-01-30 12:39:00,61.1,53.5,29.90,SE,125,1.0,2.0,76,0.00,,,0.00,Wunderground v.1.15,2014-01-30 20:39:00,
2014-01-30 12:48:00,61.3,53.7,29.90,SSE,148,1.0,1.0,76,0.00,,,0.00,Wunderground v.1.15,2014-01-30 20:48:00,
2014-01-30 12:54:00,61.4,53.4,29.89,SE,134,1.0,2.0,75,0.00,,,0.00,Wunderground v.1.15,2014-01-30 20:54:00,
2014-01-30 13:04:00,61.3,53.7,29.89,SW,221,2.0,7.0,76,0.00,,,0.00,Wunderground v.1.15,2014-01-30 21:04:00,
2014-01-30 13:13:00,60.9,53.6,29.89,SSW,211,3.0,7.0,77,0.00,,,0.00,Wunderground v.1.15,2014-01-30 21:13:00,
2014-01-30 13:19:00,60.9,54.0,29.89,SSE,165,3.0,7.0,78,0.00,,,0.00,Wunderground v.1.15,2014-01-30 21:19:00,
2014-01-30 13:28:00,61.0,53.7,29.88,SSW,211,3.0,4.0,77,0.00,,,0.00,Wunderground v.1.15,2014-01-30 21:28:00,
2014-01-30 13:33:00,60.9,54.0,29.88,SW,219,3.0,3.0,78,0.00,,,0.00,Wunderground v.1.15,2014-01-30 21:33:00,
2014-01-30 13:39:00,61.1,54.5,29.88,SE,132,3.0,3.0,79,0.00,,,0.00,Wunderground v.1.15,2014-01-30 21:39:00,
2014-01-30 13:48:00,61.5,54.6,29.88,South,180,2.0,2.0,78,0.00,,,0.00,Wunderground v.1.15,2014-01-30 21:48:00,
2014-01-30 13:53:00,61.7,54.4,29.88,SSW,207,2.0,3.0,77,0.00,,,0.00,Wunderground v.1.15,2014-01-30 21:53:00,
2014-01-30 14:04:00,62.0,54.7,29.88,SSE,159,2.0,5.0,77,0.00,,,0.00,Wunderground v.1.15,2014-01-30 22:04:00,
2014-01-30 14:13:00,61.9,54.6,29.87,SSE,162,2.0,5.0,77,0.00,,,0.00,Wunderground v.1.15,2014-01-30 22:13:00,
2014-01-30 14:19:00,61.7,54.4,29.86,SSE,162,3.0,5.0,77,0.00,,,0.00,Wunderground v.1.15,2014-01-30 22:19:00,
2014-01-30 14:29:00,61.8,54.5,29.87,SSE,162,3.0,4.0,77,0.00,,,0.00,Wunderground v.1.15,2014-01-30 22:29:00,
2014-01-30 14:34:00,62.1,54.8,29.87,SSE,163,3.0,6.0,77,0.00,,,0.00,Wunderground v.1.15,2014-01-30 22:34:00,
2014-01-30 14:43:00,62.0,54.7,29.87,SSE,157,4.0,5.0,77,0.00,,,0.00,Wunderground v.1.15,2014-01-30 22:43:00,
2014-01-30 14:53:00,61.8,54.9,29.87,SSE,155,3.0,3.0,78,0.00,,,0.00,Wunderground v.1.15,2014-01-30 22:53:00,
2014-01-30 14:59:00,61.7,54.8,29.87,SW,226,4.0,5.0,78,0.00,,,0.00,Wunderground v.1.15,2014-01-30 22:59:00,
2014-01-30 15:09:00,61.3,54.7,29.87,SSE,167,4.0,7.0,79,0.00,,,0.00,Wunderground v.1.15,2014-01-30 23:09:00,
2014-01-30 15:14:00,61.3,54.7,29.87,South,171,3.0,3.0,79,0.00,,,0.00,Wunderground v.1.15,2014-01-30 23:14:00,
2014-01-30 15:24:00,61.3,54.7,29.87,SSW,210,3.0,7.0,79,0.00,,,0.00,Wunderground v.1.15,2014-01-30 23:24:00,
2014-01-30 15:34:00,61.1,54.9,29.87,South,178,4.0,4.0,80,0.00,,,0.00,Wunderground v.1.15,2014-01-30 23:34:00,
2014-01-30 15:43:00,61.1,55.2,29.87,SSW,210,4.0,4.0,81,0.00,,,0.00,Wunderground v.1.15,2014-01-30 23:43:00,
2014-01-30 15:53:00,60.9,55.4,29.87,SSE,164,3.0,5.0,82,0.00,,,0.00,Wunderground v.1.15,2014-01-30 23:53:00,
2014-01-30 15:59:00,60.9,55.7,29.87,South,176,3.0,5.0,83,0.00,,,0.00,Wunderground v.1.15,2014-01-30 23:59:00,
2014-01-30 16:09:00,60.8,55.6,29.87,SW,215,3.0,9.0,83,0.00,,,0.00,Wunderground v.1.15,2014-01-31 00:09:00,
2014-01-30 16:18:00,60.7,55.5,29.86,South,180,4.0,9.0,83,0.00,,,0.00,Wunderground v.1.15,2014-01-31 00:18:00,
2014-01-30 16:23:00,60.7,55.5,29.86,SSW,192,3.0,4.0,83,0.00,,,0.00,Wunderground v.1.15,2014-01-31 00:23:00,
2014-01-30 16:34:00,60.7,55.5,29.86,SSW,212,4.0,4.0,83,0.00,,,0.00,Wunderground v.1.15,2014-01-31 00:34:00,
2014-01-30 16:44:00,60.7,55.5,29.86,SW,215,3.0,4.0,83,0.00,,,0.00,Wunderground v.1.15,2014-01-31 00:44:00,
2014-01-30 16:54:00,60.6,55.4,29.87,SSW,199,4.0,7.0,83,0.00,,,0.00,Wunderground v.1.15,2014-01-31 00:54:00,
2014-01-30 17:04:00,60.4,55.2,29.87,SSW,209,4.0,7.0,83,0.00,,,0.00,Wunderground v.1.15,2014-01-31 01:04:00,
2014-01-30 17:13:00,60.2,55.7,29.87,SW,222,4.0,7.0,85,0.00,,,0.00,Wunderground v.1.15,2014-01-31 01:13:00,
2014-01-30 17:24:00,59.9,55.7,29.87,SSW,213,4.0,4.0,86,0.00,,,0.00,Wunderground v.1.15,2014-01-31 01:24:00,
2014-01-30 17:34:00,59.7,56.1,29.86,SSW,197,4.0,6.0,88,0.00,,,0.00,Wunderground v.1.15,2014-01-31 01:34:00,
2014-01-30 17:43:00,59.4,56.2,29.86,SSW,207,4.0,4.0,89,0.00,,,0.00,Wunderground v.1.15,2014-01-31 01:43:00,
2014-01-30 17:49:00,59.3,56.1,29.86,SSW,209,4.0,4.0,89,0.00,,,0.00,Wunderground v.1.15,2014-01-31 01:49:00,
2014-01-30 17:59:00,59.3,56.4,29.86,SSW,196,3.0,4.0,90,0.00,,,0.00,Wunderground v.1.15,2014-01-31 01:59:00,
2014-01-30 18:09:00,59.4,56.2,29.87,SSW,201,3.0,5.0,89,0.00,,,0.00,Wunderground v.1.15,2014-01-31 02:09:00,
2014-01-30 18:18:00,59.4,56.2,29.87,SSW,213,3.0,6.0,89,0.00,,,0.00,Wunderground v.1.15,2014-01-31 02:18:00,
2014-01-30 18:24:00,59.4,56.2,29.87,SSW,194,3.0,4.0,89,0.00,,,0.00,Wunderground v.1.15,2014-01-31 02:24:00,
2014-01-30 18:34:00,59.4,56.2,29.87,SSW,212,4.0,4.0,89,0.00,,,0.00,Wunderground v.1.15,2014-01-31 02:34:00,
2014-01-30 18:44:00,59.3,56.1,29.87,South,170,3.0,4.0,89,0.00,,,0.00,Wunderground v.1.15,2014-01-31 02:44:00,
2014-01-30 18:54:00,59.3,56.1,29.87,South,175,4.0,4.0,89,0.00,,,0.00,Wunderground v.1.15,2014-01-31 02:54:00,
2014-01-30 19:04:00,59.3,56.1,29.87,South,181,3.0,3.0,89,0.00,,,0.00,Wunderground v.1.15,2014-01-31 03:04:00,
2014-01-30 19:13:00,59.4,56.2,29.87,South,181,3.0,10.0,89,0.00,,,0.00,Wunderground v.1.15,2014-01-31 03:13:00,
2014-01-30 19:24:00,59.4,55.8,29.87,SSW,208,4.0,6.0,88,0.00,,,0.00,Wunderground v.1.15,2014-01-31 03:24:00,
2014-01-30 19:34:00,59.4,55.8,29.87,South,177,5.0,5.0,88,0.00,,,0.00,Wunderground v.1.15,2014-01-31 03:34:00,
2014-01-30 19:44:00,59.4,55.8,29.87,SSW,212,3.0,7.0,88,0.00,,,0.00,Wunderground v.1.15,2014-01-31 03:44:00,
2014-01-30 19:54:00,59.4,55.8,29.87,SSW,209,5.0,5.0,88,0.00,,,0.00,Wunderground v.1.15,2014-01-31 03:54:00,
2014-01-30 20:03:00,59.3,56.1,29.87,SSW,209,3.0,9.0,89,0.00,,,0.00,Wunderground v.1.15,2014-01-31 04:03:00,
2014-01-30 20:09:00,59.2,56.3,29.87,SSW,213,5.0,9.0,90,0.00,,,0.00,Wunderground v.1.15,2014-01-31 04:09:00,
2014-01-30 20:18:00,58.4,56.1,29.87,WSW,238,5.0,9.0,92,0.00,,,0.01,Wunderground v.1.15,2014-01-31 04:18:00,
2014-01-30 20:23:00,58.1,55.8,29.87,WSW,238,3.0,3.0,92,0.00,,,0.01,Wunderground v.1.15,2014-01-31 04:23:00,
2014-01-30 20:34:00,57.6,55.3,29.88,SW,223,4.0,5.0,92,0.00,,,0.01,Wunderground v.1.15,2014-01-31 04:34:00,
2014-01-30 20:44:00,57.5,55.2,29.88,SW,222,3.0,5.0,92,0.00,,,0.01,Wunderground v.1.15,2014-01-31 04:44:00,
2014-01-30 20:54:00,57.5,55.2,29.87,SW,229,3.0,3.0,92,0.00,,,0.01,Wunderground v.1.15,2014-01-31 04:54:00,
2014-01-30 21:04:00,57.6,55.3,29.88,WSW,241,3.0,9.0,92,0.00,,,0.01,Wunderground v.1.15,2014-01-31 05:04:00,
2014-01-30 21:13:00,57.6,55.3,29.88,SW,225,3.0,3.0,92,0.00,,,0.01,Wunderground v.1.15,2014-01-31 05:13:00,
2014-01-30 21:19:00,57.7,55.4,29.88,SW,236,3.0,9.0,92,0.00,,,0.01,Wunderground v.1.15,2014-01-31 05:19:00,
2014-01-30 21:23:00,57.7,55.4,29.88,SW,236,3.0,3.0,92,0.00,,,0.01,Wunderground v.1.15,2014-01-31 05:23:00,
2014-01-30 21:29:00,57.8,55.2,29.88,SW,236,3.0,6.0,91,0.00,,,0.01,Wunderground v.1.15,2014-01-31 05:29:00,
2014-01-30 21:33:00,57.8,55.2,29.88,SW,223,4.0,4.0,91,0.00,,,0.01,Wunderground v.1.15,2014-01-31 05:33:00,
2014-01-30 21:39:00,57.7,55.1,29.89,SW,225,3.0,4.0,91,0.00,,,0.01,Wunderground v.1.15,2014-01-31 05:39:00,
2014-01-30 21:48:00,57.6,55.3,29.89,SW,225,4.0,4.0,92,0.00,,,0.01,Wunderground v.1.15,2014-01-31 05:48:00,
2014-01-30 21:53:00,57.7,55.1,29.88,WSW,243,3.0,3.0,91,0.00,,,0.01,Wunderground v.1.15,2014-01-31 05:53:00,
2014-01-30 21:59:00,57.7,55.1,29.88,WSW,239,3.0,3.0,91,0.00,,,0.01,Wunderground v.1.15,2014-01-31 05:59:00,
2014-01-30 22:03:00,57.8,55.2,29.88,SW,225,3.0,10.0,91,0.00,,,0.01,Wunderground v.1.15,2014-01-31 06:03:00,
2014-01-30 22:09:00,57.8,55.2,29.89,WSW,257,3.0,10.0,91,0.00,,,0.01,Wunderground v.1.15,2014-01-31 06:09:00,
2014-01-30 22:18:00,57.9,54.7,29.89,SW,227,4.0,5.0,89,0.00,,,0.01,Wunderground v.1.15,2014-01-31 06:18:00,
2014-01-30 22:24:00,57.9,54.7,29.89,WSW,241,4.0,4.0,89,0.00,,,0.01,Wunderground v.1.15,2014-01-31 06:24:00,
2014-01-30 22:34:00,57.9,54.7,29.89,WSW,241,2.0,2.0,89,0.00,,,0.01,Wunderground v.1.15,2014-01-31 06:34:00,
2014-01-30 22:43:00,57.8,54.6,29.89,West,261,2.0,2.0,89,0.00,,,0.01,Wunderground v.1.15,2014-01-31 06:43:00,
2014-01-30 22:49:00,57.8,54.6,29.89,WSW,238,2.0,3.0,89,0.00,,,0.01,Wunderground v.1.15,2014-01-31 06:49:00,
2014-01-30 22:59:00,57.8,54.6,29.89,WSW,238,3.0,4.0,89,0.00,,,0.01,Wunderground v.1.15,2014-01-31 06:59:00,
2014-01-30 23:04:00,57.7,54.2,29.89,SW,236,3.0,9.0,88,0.00,,,0.01,Wunderground v.1.15,2014-01-31 07:04:00,
2014-01-30 23:13:00,57.7,54.2,29.89,SW,229,3.0,9.0,88,0.00,,,0.01,Wunderground v.1.15,2014-01-31 07:13:00,
2014-01-30 23:23:00,57.7,54.2,29.90,SW,228,4.0,7.0,88,0.00,,,0.01,Wunderground v.1.15,2014-01-31 07:23:00,
2014-01-30 23:29:00,57.8,54.3,29.90,SW,235,4.0,7.0,88,0.00,,,0.01,Wunderground v.1.15,2014-01-31 07:29:00,
2014-01-30 23:39:00,57.6,53.8,29.90,SW,223,5.0,5.0,87,0.00,,,0.01,Wunderground v.1.15,2014-01-31 07:39:00,
2014-01-30 23:48:00,57.6,53.8,29.90,SW,234,5.0,5.0,87,0.00,,,0.01,Wunderground v.1.15,2014-01-31 07:48:00,
2014-01-30 23:53:00,57.6,53.8,29.90,SW,235,4.0,5.0,87,0.00,,,0.01,Wunderground v.1.15,2014-01-31 07:53:00,